Tracking 23610 objects as of 20-Sep-2021
HD Live streaming from Space Station
objects crossing your sky now

AMC-5 (GE-5)

Track AMC-5 (GE-5) now!
AMC-5 (GE-5) is classified as:


NORAD ID: 25516
Int'l Code: 1998-063B
Perigee: 36,033.7 km
Apogee: 36,082.4 km
Inclination: 8.1 °
Period: 1,449.6 minutes
Semi major axis: 42429 km
RCS: 9.3322 m2 (large)
Launch date: October 28, 1998
Source: SOCIETE EUROPEENNE DES SATELLITES (SES)
Launch site: FRENCH GUIANA (FRGUI)

Broadband internet, business television; 16 Ku-band; CONUS
aabbcc
Your satellite tracking list
Your tracking list is empty




NASA's NSSDC Master Catalog

Two Line Element Set (TLE):
1 25516U 98063B   21262.69471330 -.00000103  00000-0  00000-0 0  9996
2 25516   8.1412  52.2966 0005742  38.3303 344.3079  0.99336303 83631
Source of the keplerian elements: AFSPC